Freeport, IL

11:21 AM CST on February 26, 2017 (GMT -0600)
Albertus

Weather History for KFEP - December, 2012

Change the Weather History Date:

Sunday, December 2, 2012

  Actual Average Record
Temperature  
Mean Temperature 54 °F -  
Max Temperature 62 °F 36 °F 64 °F (1982)
Min Temperature 46 °F 21 °F -5 °F (1976)
Degree Days  
Heating Degree Days 11    
Growing Degree Days 4 (Base 50)    
Moisture  
Dew Point 49 °F    
Average Humidity 85    
Maximum Humidity 94    
Minimum Humidity 58    
Precipitation  
Precipitation 0.00 in - - ()
Sea Level Pressure  
Sea Level Pressure 29.97 in    
Wind  
Wind Speed 5 mph (SSW)    
Max Wind Speed 9 mph    
Max Gust Speed -    
Visibility 4 miles    
Events Fog    
Averages and records for this station are not official NWS values.
T = Trace of Precipitation, MM = Missing Value Source: NWS Daily Summary

Daily Weather History Graph

Daily Weather History Graph

Search for Another Location

Airport or City:

Trip Planner

Search our weather history database for the weather conditions in past years. The results will help you decide how hot, cold, wet, or windy it might be!

Date:

Astronomy

Dec. 02, 2012 Rise Set
Actual Time 7:09 AM CST 4:26 PM CST
Civil Twilight 6:37 AM CST 4:58 PM CST
Nautical Twilight 6:02 AM CST 5:32 PM CST
Astronomical Twilight 5:28 AM CST 6:06 PM CST
Moon 8:16 PM CST (12/2) 9:57 AM CST (12/2)
Length of Visible Light 10h 20m
Length of Day
9h 17m
Waning Gibbous, 85% of the Moon is Illuminated
Dec 2
Waning Gibbous
Dec 6
Last Quarter
Dec 13
New
Dec 19
First Quarter
Dec 28
Full

Hourly Weather History & Observations

Time (CST) Temp. Windchill Dew Point Humidity Pressure Visibility Wind Dir Wind Speed Gust Speed Precip Events Conditions
12:15 AM 56.5 °F - 53.1 °F 88% 29.86 in 7.0 mi South 9.2 mph - N/A   Overcast
12:35 AM 57.2 °F - 53.6 °F 88% 29.87 in 7.0 mi SSW 6.9 mph - N/A   Overcast
12:55 AM 56.5 °F - 53.6 °F 90% 29.87 in 7.0 mi SSW 8.1 mph - N/A   Overcast
1:15 AM 56.5 °F - 53.2 °F 89% 29.87 in 7.0 mi SW 5.8 mph - N/A   Overcast
1:35 AM 56.5 °F - 53.2 °F 89% 29.87 in 7.0 mi SSW 4.6 mph - N/A   Overcast
1:55 AM 56.5 °F - 53.6 °F 90% 29.88 in 5.0 mi SSW 8.1 mph - N/A   Overcast
2:15 AM 55.6 °F - 52.9 °F 91% 29.88 in 7.0 mi South 8.1 mph - N/A   Overcast
2:35 AM 56.5 °F - 53.6 °F 90% 29.87 in 7.0 mi SSW 8.1 mph - N/A   Overcast
2:55 AM 56.5 °F - 53.6 °F 90% 29.87 in 7.0 mi SSW 5.8 mph - N/A   Overcast
3:15 AM 56.5 °F - 53.6 °F 90% 29.88 in 7.0 mi SSW 6.9 mph - N/A   Overcast
3:35 AM 55.4 °F - 52.7 °F 91% 29.88 in 7.0 mi SSW 6.9 mph - N/A   Overcast
3:55 AM 56.5 °F - 53.6 °F 90% 29.87 in 7.0 mi SW 5.8 mph - N/A   Overcast
4:15 AM 56.5 °F - 53.6 °F 90% 29.88 in 7.0 mi WSW 4.6 mph - N/A   Overcast
4:35 AM 55.4 °F - 52.7 °F 91% 29.89 in 7.0 mi WSW 4.6 mph - N/A   Overcast
4:55 AM 54.0 °F - 51.8 °F 92% 29.90 in 5.0 mi West 3.5 mph - N/A   Overcast
5:15 AM 54.0 °F - 51.8 °F 92% 29.90 in 5.0 mi South 4.6 mph - N/A   Overcast
5:35 AM 54.0 °F - 51.8 °F 92% 29.90 in 4.0 mi SW 4.6 mph - N/A   Mostly Cloudy
5:55 AM 54.0 °F - 51.8 °F 92% 29.92 in 4.0 mi West 4.6 mph - N/A   Mostly Cloudy
6:15 AM 54.0 °F - 51.8 °F 92% 29.93 in 4.0 mi West 4.6 mph - N/A   Overcast
6:35 AM 54.0 °F - 51.8 °F 92% 29.94 in 4.0 mi WSW 5.8 mph - N/A   Overcast
6:55 AM 54.0 °F - 51.8 °F 92% 29.94 in 4.0 mi Calm Calm - N/A   Scattered Clouds
7:15 AM 54.0 °F - 51.8 °F 92% 29.95 in 2.5 mi Calm Calm - N/A   Clear
7:35 AM 51.4 °F - 49.5 °F 93% 29.96 in 1.0 mi Calm Calm - N/A   Mist
7:55 AM 51.8 °F - 50.0 °F 94% 29.96 in 1.2 mi Calm Calm - N/A   Mist
8:15 AM 50.9 °F - 49.1 °F 94% 29.96 in 0.2 mi WSW 3.5 mph - N/A Fog Fog
8:35 AM 54.0 °F - 52.2 °F 94% 29.97 in 1.2 mi WSW 3.5 mph - N/A   Mist
8:55 AM 54.0 °F - 52.2 °F 94% 29.98 in 1.8 mi SW 3.5 mph - N/A   Mist
9:15 AM 54.0 °F - 52.0 °F 93% 29.99 in 2.5 mi WSW 4.6 mph - N/A   Clear
9:35 AM 54.0 °F - 50.9 °F 89% 29.99 in 4.0 mi WSW 3.5 mph - N/A   Clear
9:55 AM 55.2 °F - 50.9 °F 85% 30.00 in 5.0 mi West 4.6 mph - N/A   Clear
10:15 AM 56.5 °F - 51.1 °F 82% 30.01 in 5.0 mi West 5.8 mph - N/A   Haze
10:35 AM 56.5 °F - 50.2 °F 79% 30.01 in 5.0 mi WNW 3.5 mph - N/A   Haze
10:55 AM 59.0 °F - 52.0 °F 78% 30.00 in 5.0 mi NNW 3.5 mph - N/A   Haze
11:15 AM 59.0 °F - 50.5 °F 73% 29.99 in 5.0 mi West 4.6 mph - N/A   Haze
11:35 AM 59.0 °F - 49.5 °F 71% 30.00 in 7.0 mi West 3.5 mph - N/A   Clear
11:55 AM 59.0 °F - 48.9 °F 69% 30.00 in 7.0 mi WSW 3.5 mph - N/A   Clear
12:15 PM 60.3 °F - 49.1 °F 67% 30.00 in 7.0 mi West 3.5 mph - N/A   Clear
12:35 PM 61.3 °F - 49.8 °F 66% 30.00 in 7.0 mi Calm Calm - N/A   Clear
12:55 PM 60.6 °F - 48.9 °F 65% 29.99 in 7.0 mi Calm Calm - N/A   Clear
1:15 PM 61.7 °F - 48.6 °F 62% 29.99 in 7.0 mi West 5.8 mph - N/A   Clear
1:35 PM 62.6 °F - 48.2 °F 59% 29.99 in 7.0 mi Calm Calm - N/A   Clear
1:55 PM 61.7 °F - 46.9 °F 58% 29.98 in 10.0 mi West 3.5 mph - N/A   Clear
2:15 PM 61.9 °F - 46.9 °F 58% 29.98 in 7.0 mi WNW 4.6 mph - N/A   Clear
2:35 PM 61.7 °F - 46.6 °F 58% 29.98 in 10.0 mi Calm Calm - N/A   Clear
2:55 PM 61.7 °F - 46.8 °F 58% 29.99 in 10.0 mi Calm Calm - N/A   Clear
3:15 PM 61.7 °F - 47.8 °F 60% 29.99 in 10.0 mi Calm Calm - N/A   Clear
3:35 PM 59.2 °F - 46.0 °F 62% 29.99 in 10.0 mi Calm Calm - N/A   Clear
3:55 PM 59.0 °F - 46.8 °F 64% 29.99 in 10.0 mi Calm Calm - N/A   Clear
4:15 PM 56.5 °F - 46.4 °F 69% 30.00 in 10.0 mi Calm Calm - N/A   Clear
4:35 PM 54.0 °F - 48.9 °F 83% 30.00 in 5.0 mi South 8.1 mph - N/A   Haze
4:55 PM 51.4 °F - 47.7 °F 87% 30.01 in 5.0 mi South 6.9 mph - N/A   Clear
5:15 PM 51.4 °F - 48.2 °F 89% 30.02 in 5.0 mi South 6.9 mph - N/A   Clear
5:35 PM 50.0 °F - 46.4 °F 87% 30.03 in 4.0 mi South 8.1 mph - N/A   Clear
5:55 PM 47.7 °F - 45.3 °F 92% 30.04 in 3.0 mi South 8.1 mph - N/A   Clear
6:15 PM 47.7 °F - 45.5 °F 92% 30.04 in 0.8 mi South 8.1 mph - N/A   Overcast
6:35 PM 49.1 °F - 46.9 °F 92% 30.05 in 0.2 mi South 6.9 mph - N/A Fog Fog
6:55 PM 49.1 °F - 47.3 °F 93% 30.06 in 0.2 mi South 3.5 mph - N/A Fog Fog
7:15 PM 49.1 °F - 47.3 °F 93% 30.07 in 0.2 mi Calm Calm - N/A Fog Fog
7:35 PM 49.1 °F - 47.3 °F 93% 30.06 in 0.2 mi Calm Calm - N/A Fog Fog
7:55 PM 49.1 °F - 47.3 °F 93% 30.05 in 0.2 mi South 3.5 mph - N/A Fog Fog
8:15 PM 48.7 °F - 47.1 °F 94% 30.05 in 0.2 mi SE 3.5 mph - N/A Fog Fog
8:35 PM 47.8 °F - 46.2 °F 94% 30.04 in 0.2 mi SE 3.5 mph - N/A Fog Fog
8:55 PM 47.5 °F - 45.9 °F 94% 30.03 in 0.2 mi ESE 4.6 mph - N/A Fog Fog
9:15 PM 47.5 °F - 45.9 °F 94% 30.02 in 0.2 mi ESE 4.6 mph - N/A Fog Fog
9:35 PM 47.5 °F - 45.9 °F 94% 30.03 in 0.2 mi East 4.6 mph - N/A Fog Fog
9:55 PM 47.5 °F - 45.9 °F 94% 30.03 in 0.2 mi East 5.8 mph - N/A Fog Fog
10:15 PM 47.5 °F - 45.9 °F 94% 30.02 in 0.2 mi Calm Calm - N/A Fog Fog
10:35 PM 47.5 °F - 45.9 °F 94% 30.03 in 0.2 mi East 8.1 mph - N/A Fog Fog
10:55 PM 46.8 °F - 45.1 °F 94% 30.04 in 0.2 mi East 6.9 mph - N/A Fog Fog
11:15 PM 46.4 °F 42.4 °F 44.6 °F 93% 30.03 in 0.2 mi East 8.1 mph - N/A Fog Fog
11:35 PM 46.6 °F - 45.0 °F 94% 30.03 in 0.2 mi East 8.1 mph - N/A Fog Fog
11:55 PM 46.4 °F 42.9 °F 44.6 °F 93% 30.03 in 0.2 mi East 6.9 mph - N/A Fog Fog